Showing default

COSMOS 2216, 22187

Orbit data source: Space-Track

COSMOS 2216, 22187 is a payload satellite owned by VKS (CIS) in LEO that was launched on Tue, 20 Oct 1992 UTC via a TSIKLON-3 launch vehicle from the Plesetsk Missile And Space Complex (PKMTR). Payload-class satellites include a variety of spacecraft equipped with specific instruments for various scientific and technological missions. These include communications satellites like Starlink; space stations such as the ISS; scientific satellites like the Hubble; Earth observation satellites from companies like Planet Labs, Umbra, and HawkEye 360; GPS; miniature CubeSats for education and research; and military/defense satellites.

Loading next visibility...
Identifier
22187, 1992-068F
Orbit
LEO
Last TLE update
16 hours ago
Origin
Manufacturer
NPO PM
Mission
Defense Communications
Bus & Motor
STRELA-3, Unknown motor
Mass
225 kg wet, 225 kg dry
Launch date (UTC)
1992-10-20 (33 years ago)
Launch vehicle
TSIKLON-3
Launch site
Plesetsk Missile And Space Complex (PKMTR)
Object type
Payload
Rocket body
Debris
Shape & HBR
Cyl, 0.8 m
Radar Cross Section
1.257 m², Medium (>0.1 m² and < 1m²)

Expand to show TLE details & history

TLE from 16 hours ago
0 COSMOS 2216
1 22187U 92068F   25199.49537158  .00000034  00000-0  13045-3 0  9996
2 22187  82.5944 196.3531 0005616 159.6320 200.4996 12.62574837508789
Epoch: 2025-07-18T11:53Z
TLE epoch observation values (Epoch: 2025-07-18T11:53:20.104Z)
Latitude
-0.00005°
Longitude
81.47332°
Altitude
1,419.164 km
Speed
7.149 km/s
True Right ascension
13h 05m 24s
True Declination
0° 00' 00"
Sunlit
Object was in daylight at epoch
Visualization orbit readout
Latitude
34.87868°
Longitude
-104.12314°
Altitude
1,412.587 km
Speed
7.159 km/s
Apparent Right ascension
02h 24m 26s
Apparent Declination
2° 06' 60"
Sunlit
Object is in daylight
Visualization observer readout
Local Sidereal Time
16:40:25
Azimuth
44.939° NE
Elevation
-37.716°
Doppler factor
1
Orbital elements
Apogee altitude
1,414.028 km
Perigee altitude
1,405.281 km
Semi-major axis
7,787.791 km
Eccentricity
0.00056
Inclination
82.5944°
RAAN
196.3531°
Arg. of periapsis
159.632°
True anomaly
200.47708°
Mean anomaly
200.4996°
Eccentric anomaly
200.48834°
Mean motion
3.15807 °/min
Orbital period
113.99 mins
BSTAR
0.00013045
Loading maneuver chart data...
Loading SW <> Apogee altitude chart data...
Loading historical data...
Loading historical data...
Loading historical data...
Loading historical data...
Loading historical data...
Loading historical data...
Loading historical data...
|